Weather in Slautnoye

Russia / Kamchatka Krai     63°10′12″N   167°58′23″E
temp.,
°C
wind,
m/s
gust,
m/s
humid.,
%
clouds,
%
prec.,
mm/h
press.,
hPa
HPBL,
m
28 february, sun
sun2800:00−33nne45890 0.0 103060
03:00−34nne34890 0.0 103031
06:00−35ne23890 0.0 103022
09:00−34nne23890 0.0 103125
12:00−30nne24870 0.0 1030146
15:00−28nne34890 0.0 1029206
18:00−32nne45890 0.0 102862
21:00−32nne59870 0.0 1027136
1 march, mon
mon100:00−31nne813832 0.0 1024251
03:00−30nne111782100 0.0 1020377
06:00−29nne132279100 0.0 1016422
09:00−29nne132083100 0.0 1013452
12:00−28nne131984100 0.0 1011578
15:00−24ne122082100 0.0 1009744
18:00−24ne101982100 0.0 1008756
21:00−23nne91982100 0.0 1009684
2 march, tue
tue200:00−22nne81780100 0.0 1010678
03:00−23nne71479100 0.0 1011366
06:00−24nne61279100 0.0 1012226
09:00−26nne588052 0.0 1014110
12:00−22nne587976 0.0 1015230
15:00−21nne587999 0.0 1016224
18:00−25nne447775 0.0 101828
21:00−26nne33750 0.0 102120
3 march, wed
wed300:00−28ne22750 0.0 102319
03:00−30wnw01776 0.0 102519
06:00−31ese117611 0.0 102719
09:00−30ssw007659 0.0 102919
12:00−26ne117759 0.0 103084
15:00−25nne12839 0.0 1029109
18:00−27nne338255 0.0 102722
21:00−26nne4585100 0.0 1026104
4 march, thu
thu400:00−25nne6886100 0.0 1021193
03:00−26nne81199100 0.7 1014252
06:00−25nne91298100 4.6 1006273
09:00−20nne101490100 0.3 999347
12:00−4ese152466100 0.4 989619
15:000e132168100 0.0 979553
18:00−1s91686100 0.1 974655
21:00−15sw81585100 0.4 976648